Year,Month,Day,Hour,Minute,Value (Times are PST for temperature in C)
2020,04,15,00,00,9.50
2020,04,15,00,01,9.40
2020,04,15,00,02,9.40
2020,04,15,00,03,9.40
2020,04,15,00,04,9.40
2020,04,15,00,05,9.40
2020,04,15,00,06,9.40
2020,04,15,00,07,9.40
2020,04,15,00,08,9.40
2020,04,15,00,09,9.40
2020,04,15,00,10,9.40
2020,04,15,00,11,9.40
2020,04,15,00,12,9.40
2020,04,15,00,13,9.40
2020,04,15,00,14,9.40
2020,04,15,00,15,9.30
2020,04,15,00,16,9.30
2020,04,15,00,17,9.30
2020,04,15,00,18,9.30
2020,04,15,00,19,9.30
2020,04,15,00,20,9.30
2020,04,15,00,21,9.30
2020,04,15,00,22,9.30
2020,04,15,00,23,9.30
2020,04,15,00,24,9.30
2020,04,15,00,25,9.30
2020,04,15,00,26,9.30
2020,04,15,00,27,9.20
2020,04,15,00,28,9.20
2020,04,15,00,29,9.20
2020,04,15,00,30,9.20
2020,04,15,00,31,9.20
2020,04,15,00,32,9.20
2020,04,15,00,33,9.20
2020,04,15,00,34,9.20
2020,04,15,00,35,9.20
2020,04,15,00,36,9.20
2020,04,15,00,37,9.20
2020,04,15,00,38,9.20
2020,04,15,00,39,9.20
2020,04,15,00,40,9.20
2020,04,15,00,41,9.20
2020,04,15,00,42,9.20
2020,04,15,00,43,9.20
2020,04,15,00,44,9.20
2020,04,15,00,45,9.20
2020,04,15,00,46,9.20
2020,04,15,00,47,9.20
2020,04,15,00,48,9.20
2020,04,15,00,49,9.20
2020,04,15,00,50,9.20
2020,04,15,00,51,9.20
2020,04,15,00,52,9.20
2020,04,15,00,53,9.10
2020,04,15,00,54,9.10
2020,04,15,00,55,9.10
2020,04,15,00,56,9.10
2020,04,15,00,57,9.10
2020,04,15,00,58,9.10
2020,04,15,00,59,9.10
2020,04,15,01,00,9.10
2020,04,15,01,01,9.10
2020,04,15,01,02,9.10
2020,04,15,01,03,9.20
2020,04,15,01,04,9.10
2020,04,15,01,05,9.10
2020,04,15,01,06,9.10
2020,04,15,01,07,9.10
2020,04,15,01,08,9.10
2020,04,15,01,09,9.10
2020,04,15,01,10,9.10
2020,04,15,01,11,9.00
2020,04,15,01,12,9.10
2020,04,15,01,13,9.10
2020,04,15,01,14,9.10
2020,04,15,01,15,9.10
2020,04,15,01,16,9.10
2020,04,15,01,17,9.10
2020,04,15,01,18,9.10
2020,04,15,01,19,9.10
2020,04,15,01,20,9.20
2020,04,15,01,21,9.20
2020,04,15,01,22,9.20
2020,04,15,01,23,9.20
2020,04,15,01,24,9.30
2020,04,15,01,25,9.30
2020,04,15,01,26,9.30
2020,04,15,01,27,9.30
2020,04,15,01,28,9.30
2020,04,15,01,29,9.30
2020,04,15,01,30,9.40
2020,04,15,01,31,9.40
2020,04,15,01,32,9.40
2020,04,15,01,33,9.40
2020,04,15,01,34,9.40
2020,04,15,01,35,9.40
2020,04,15,01,36,9.40
2020,04,15,01,37,9.40
2020,04,15,01,38,9.40
2020,04,15,01,39,9.50
2020,04,15,01,40,9.50
2020,04,15,01,41,9.50
2020,04,15,01,42,9.50
2020,04,15,01,43,9.50
2020,04,15,01,44,9.50
2020,04,15,01,45,9.50
2020,04,15,01,46,9.50
2020,04,15,01,47,9.50
2020,04,15,01,48,9.50
2020,04,15,01,49,9.50
2020,04,15,01,50,9.60
2020,04,15,01,51,9.60
2020,04,15,01,52,9.60
2020,04,15,01,53,9.60
2020,04,15,01,54,9.60
2020,04,15,01,55,9.60
2020,04,15,01,56,9.60
2020,04,15,01,57,9.60
2020,04,15,01,58,9.50
2020,04,15,01,59,9.50
2020,04,15,02,00,9.50
2020,04,15,02,01,9.50
2020,04,15,02,02,9.40
2020,04,15,02,03,9.40
2020,04,15,02,04,9.40
2020,04,15,02,05,9.40
2020,04,15,02,06,9.40
2020,04,15,02,07,9.40
2020,04,15,02,08,9.40
2020,04,15,02,09,9.40
2020,04,15,02,10,9.40
2020,04,15,02,11,9.40
2020,04,15,02,12,9.40
2020,04,15,02,13,9.40
2020,04,15,02,14,9.40
2020,04,15,02,15,9.40
2020,04,15,02,16,9.40
2020,04,15,02,17,9.50
2020,04,15,02,18,9.40
2020,04,15,02,19,9.50
2020,04,15,02,20,9.50
2020,04,15,02,21,9.60
2020,04,15,02,22,9.60
2020,04,15,02,23,9.60
2020,04,15,02,24,9.60
2020,04,15,02,25,9.60
2020,04,15,02,26,9.60
2020,04,15,02,27,9.70
2020,04,15,02,28,9.70
2020,04,15,02,29,9.70
2020,04,15,02,30,9.70
2020,04,15,02,31,9.60
2020,04,15,02,32,9.60
2020,04,15,02,33,9.60
2020,04,15,02,34,9.60
2020,04,15,02,35,9.60
2020,04,15,02,36,9.60
2020,04,15,02,37,9.60
2020,04,15,02,38,9.60
2020,04,15,02,39,9.60
2020,04,15,02,40,9.60
2020,04,15,02,41,9.60
2020,04,15,02,42,9.60
2020,04,15,02,43,9.60
2020,04,15,02,44,9.60
2020,04,15,02,45,9.60
2020,04,15,02,46,9.60
2020,04,15,02,47,9.60
2020,04,15,02,48,9.60
2020,04,15,02,49,9.60
2020,04,15,02,50,9.60
2020,04,15,02,51,9.60
2020,04,15,02,52,9.60
2020,04,15,02,53,9.70
2020,04,15,02,54,9.70
2020,04,15,02,55,9.70
2020,04,15,02,56,9.70
2020,04,15,02,57,9.80
2020,04,15,02,58,9.80
2020,04,15,02,59,9.90
2020,04,15,03,00,9.90
2020,04,15,03,01,10.00
2020,04,15,03,02,10.00
2020,04,15,03,03,9.90
2020,04,15,03,04,9.90
2020,04,15,03,05,9.90
2020,04,15,03,06,9.80
2020,04,15,03,07,9.80
2020,04,15,03,08,9.80
2020,04,15,03,09,9.80
2020,04,15,03,10,9.80
2020,04,15,03,11,9.80
2020,04,15,03,12,9.70
2020,04,15,03,13,9.70
2020,04,15,03,14,9.70
2020,04,15,03,15,9.70
2020,04,15,03,16,9.60
2020,04,15,03,17,9.50
2020,04,15,03,18,9.40
2020,04,15,03,19,9.30
2020,04,15,03,20,9.30
2020,04,15,03,21,9.20
2020,04,15,03,22,9.20
2020,04,15,03,23,9.20
2020,04,15,03,24,9.10
2020,04,15,03,25,9.10
2020,04,15,03,26,9.10
2020,04,15,03,27,9.10
2020,04,15,03,28,9.10
2020,04,15,03,29,9.10
2020,04,15,03,30,9.20
2020,04,15,03,31,9.10
2020,04,15,03,32,9.20
2020,04,15,03,33,9.20
2020,04,15,03,34,9.20
2020,04,15,03,35,9.20
2020,04,15,03,36,9.10
2020,04,15,03,37,9.20
2020,04,15,03,38,9.20
2020,04,15,03,39,9.20
2020,04,15,03,40,9.20
2020,04,15,03,41,9.20
2020,04,15,03,42,9.20
2020,04,15,03,43,9.20
2020,04,15,03,44,9.20
2020,04,15,03,45,9.10
2020,04,15,03,46,9.10
2020,04,15,03,47,9.10
2020,04,15,03,48,9.10
2020,04,15,03,49,9.10
2020,04,15,03,50,9.10
2020,04,15,03,51,9.10
2020,04,15,03,52,9.10
2020,04,15,03,53,9.10
2020,04,15,03,54,9.10
2020,04,15,03,55,9.10
2020,04,15,03,56,9.10
2020,04,15,03,57,9.10
2020,04,15,03,58,9.10
2020,04,15,03,59,9.10
2020,04,15,04,00,9.10
2020,04,15,04,01,9.10
2020,04,15,04,02,9.00
2020,04,15,04,03,9.00
2020,04,15,04,04,9.00
2020,04,15,04,05,9.00
2020,04,15,04,06,8.90
2020,04,15,04,07,8.90
2020,04,15,04,08,8.90
2020,04,15,04,09,8.90
2020,04,15,04,10,8.90
2020,04,15,04,11,8.90
2020,04,15,04,12,8.90
2020,04,15,04,13,8.80
2020,04,15,04,14,8.80
2020,04,15,04,15,8.80
2020,04,15,04,16,8.80
2020,04,15,04,17,8.90
2020,04,15,04,18,8.90
2020,04,15,04,19,8.90
2020,04,15,04,20,8.90
2020,04,15,04,21,8.90
2020,04,15,04,22,8.90
2020,04,15,04,23,8.90
2020,04,15,04,24,8.90
2020,04,15,04,25,8.90
2020,04,15,04,26,8.90
2020,04,15,04,27,8.80
2020,04,15,04,28,8.90
2020,04,15,04,29,8.80
2020,04,15,04,30,8.90
2020,04,15,04,31,8.80
2020,04,15,04,32,8.80
2020,04,15,04,33,8.80
2020,04,15,04,34,8.80
2020,04,15,04,35,8.80
2020,04,15,04,36,8.90
2020,04,15,04,37,8.90
2020,04,15,04,38,8.90
2020,04,15,04,39,8.90
2020,04,15,04,40,8.90
2020,04,15,04,41,8.80
2020,04,15,04,42,8.90
2020,04,15,04,43,8.90
2020,04,15,04,44,8.90
2020,04,15,04,45,8.90
2020,04,15,04,46,8.90
2020,04,15,04,47,8.90
2020,04,15,04,48,8.90
2020,04,15,04,49,8.90
2020,04,15,04,50,8.90
2020,04,15,04,51,8.90
2020,04,15,04,52,8.90
2020,04,15,04,53,8.90
2020,04,15,04,54,8.90
2020,04,15,04,55,8.90
2020,04,15,04,56,8.90
2020,04,15,04,57,8.90
2020,04,15,04,58,8.90
2020,04,15,04,59,8.90
2020,04,15,05,00,8.80
2020,04,15,05,01,8.80
2020,04,15,05,02,8.80
2020,04,15,05,03,8.80
2020,04,15,05,04,8.80
2020,04,15,05,05,8.80
2020,04,15,05,06,8.80
2020,04,15,05,07,8.80
2020,04,15,05,08,8.80
2020,04,15,05,09,8.80
2020,04,15,05,10,8.80
2020,04,15,05,11,8.70
2020,04,15,05,12,8.70
2020,04,15,05,13,8.70
2020,04,15,05,14,8.70
2020,04,15,05,15,8.70
2020,04,15,05,16,8.70
2020,04,15,05,17,8.70
2020,04,15,05,18,8.70
2020,04,15,05,19,8.70
2020,04,15,05,20,8.70
2020,04,15,05,21,8.70
2020,04,15,05,22,8.80
2020,04,15,05,23,8.80
2020,04,15,05,24,8.80
2020,04,15,05,25,8.80
2020,04,15,05,26,8.90
2020,04,15,05,27,8.80
2020,04,15,05,28,8.90
2020,04,15,05,29,8.90
2020,04,15,05,30,8.80
2020,04,15,05,31,8.80
2020,04,15,05,32,8.80
2020,04,15,05,33,8.80
2020,04,15,05,34,8.70
2020,04,15,05,35,8.70
2020,04,15,05,36,8.70
2020,04,15,05,37,8.70
2020,04,15,05,38,8.60
2020,04,15,05,39,8.60
2020,04,15,05,40,8.50
2020,04,15,05,41,8.50
2020,04,15,05,42,8.50
2020,04,15,05,43,8.40
2020,04,15,05,44,8.40
2020,04,15,05,45,8.40
2020,04,15,05,46,8.40
2020,04,15,05,47,8.40
2020,04,15,05,48,8.40
2020,04,15,05,49,8.40
2020,04,15,05,50,8.40
2020,04,15,05,51,8.40
2020,04,15,05,52,8.40
2020,04,15,05,53,8.40
2020,04,15,05,54,8.40
2020,04,15,05,55,8.40
2020,04,15,05,56,8.40
2020,04,15,05,57,8.40
2020,04,15,05,58,8.40
2020,04,15,05,59,8.40
2020,04,15,06,00,8.50
2020,04,15,06,01,8.50
2020,04,15,06,02,8.50
2020,04,15,06,03,8.60
2020,04,15,06,04,8.50
2020,04,15,06,05,8.60
2020,04,15,06,06,8.60
2020,04,15,06,07,8.50
2020,04,15,06,08,8.50
2020,04,15,06,09,8.50
2020,04,15,06,10,8.50
2020,04,15,06,11,8.50
2020,04,15,06,12,8.50
2020,04,15,06,13,8.40
2020,04,15,06,14,8.40
2020,04,15,06,15,8.40
2020,04,15,06,16,8.40
2020,04,15,06,17,8.40
2020,04,15,06,18,8.40
2020,04,15,06,19,8.40
2020,04,15,06,20,8.40
2020,04,15,06,21,8.30
2020,04,15,06,22,8.30
2020,04,15,06,23,8.20
2020,04,15,06,24,8.20
2020,04,15,06,25,8.10
2020,04,15,06,26,8.10
2020,04,15,06,27,8.10
2020,04,15,06,28,8.00
2020,04,15,06,29,7.90
2020,04,15,06,30,7.80
2020,04,15,06,31,7.60
2020,04,15,06,32,7.50
2020,04,15,06,33,7.40
2020,04,15,06,34,7.30
2020,04,15,06,35,7.20
2020,04,15,06,36,7.20
2020,04,15,06,37,7.10
2020,04,15,06,38,7.10
2020,04,15,06,39,7.10
2020,04,15,06,40,7.00
2020,04,15,06,41,7.00
2020,04,15,06,42,7.00
2020,04,15,06,43,7.00
2020,04,15,06,44,7.00
2020,04,15,06,45,7.00
2020,04,15,06,46,7.00
2020,04,15,06,47,7.00
2020,04,15,06,48,7.00
2020,04,15,06,49,7.00
2020,04,15,06,50,7.00
2020,04,15,06,51,7.00
2020,04,15,06,52,7.10
2020,04,15,06,53,7.10
2020,04,15,06,54,7.10
2020,04,15,06,55,7.20
2020,04,15,06,56,7.20
2020,04,15,06,57,7.20
2020,04,15,06,58,7.20
2020,04,15,06,59,7.30
2020,04,15,07,00,7.30
2020,04,15,07,01,7.30
2020,04,15,07,02,7.30
2020,04,15,07,03,7.40
2020,04,15,07,04,7.40
2020,04,15,07,05,7.40
2020,04,15,07,06,7.40
2020,04,15,07,07,7.40
2020,04,15,07,08,7.50
2020,04,15,07,09,7.50
2020,04,15,07,10,7.60
2020,04,15,07,11,7.60
2020,04,15,07,12,7.60
2020,04,15,07,13,7.60
2020,04,15,07,14,7.60
2020,04,15,07,15,7.70
2020,04,15,07,16,7.70
2020,04,15,07,17,7.70
2020,04,15,08,06,8.00
2020,04,15,08,07,7.90
2020,04,15,08,08,8.00
2020,04,15,08,09,8.00
2020,04,15,08,10,8.00
2020,04,15,08,11,8.00
2020,04,15,08,12,8.00
2020,04,15,08,13,8.10
2020,04,15,08,14,8.10
2020,04,15,08,15,8.10
2020,04,15,08,16,8.10
2020,04,15,08,17,8.10
2020,04,15,08,18,8.10
2020,04,15,08,19,8.10
2020,04,15,08,20,8.20
2020,04,15,08,21,8.20
2020,04,15,08,22,8.20
2020,04,15,08,23,8.20
2020,04,15,08,24,8.20
2020,04,15,08,25,8.20
2020,04,15,08,26,8.20
2020,04,15,08,27,8.30
2020,04,15,08,28,8.30
2020,04,15,08,29,8.30
2020,04,15,08,30,8.30
2020,04,15,08,31,8.30
2020,04,15,08,32,8.30
2020,04,15,08,33,8.30
2020,04,15,08,34,8.30
2020,04,15,08,35,8.30
2020,04,15,08,36,8.30
2020,04,15,08,37,8.30
2020,04,15,08,38,8.30
2020,04,15,08,39,8.30
2020,04,15,08,40,8.30
2020,04,15,08,41,8.30
2020,04,15,08,42,8.30
2020,04,15,08,58,8.40
2020,04,15,08,59,8.40
2020,04,15,09,00,8.40
2020,04,15,09,01,8.40
2020,04,15,09,02,8.40
2020,04,15,09,03,8.40
2020,04,15,09,04,8.40
2020,04,15,09,05,8.40
2020,04,15,09,06,8.40
2020,04,15,09,07,8.40
2020,04,15,09,08,8.50
2020,04,15,09,09,8.50
2020,04,15,09,10,8.50
2020,04,15,09,11,8.50
2020,04,15,09,12,8.60
2020,04,15,09,13,8.60
2020,04,15,09,14,8.60
2020,04,15,09,15,8.60
2020,04,15,09,16,8.60
2020,04,15,09,17,8.70
2020,04,15,09,18,8.70
2020,04,15,09,19,8.60
2020,04,15,09,20,8.60
2020,04,15,09,21,8.60
2020,04,15,09,22,8.50
2020,04,15,09,23,8.50
2020,04,15,09,24,8.50
2020,04,15,09,25,8.40
2020,04,15,09,26,8.40
2020,04,15,09,27,8.40
2020,04,15,09,28,8.40
2020,04,15,09,29,8.40
2020,04,15,09,30,8.50
2020,04,15,09,31,8.50
2020,04,15,09,32,8.60
2020,04,15,09,33,8.60
2020,04,15,09,34,8.70
2020,04,15,09,35,8.70
2020,04,15,09,36,8.70
2020,04,15,09,37,8.70
2020,04,15,09,38,8.70
2020,04,15,09,39,8.70
2020,04,15,09,40,8.70
2020,04,15,09,41,8.70
2020,04,15,09,42,8.60
2020,04,15,09,43,8.60
2020,04,15,09,44,8.60
2020,04,15,09,45,8.60
2020,04,15,09,46,8.60
2020,04,15,09,47,8.60
2020,04,15,09,48,8.60
2020,04,15,09,49,8.50
2020,04,15,09,50,8.50
2020,04,15,09,51,8.50
2020,04,15,09,52,8.50
2020,04,15,09,53,8.50
2020,04,15,09,54,8.50
2020,04,15,09,55,8.50
2020,04,15,09,56,8.50
2020,04,15,09,57,8.50
2020,04,15,09,58,8.50
2020,04,15,09,59,8.50
2020,04,15,10,00,8.50
2020,04,15,10,01,8.50
2020,04,15,10,02,8.50
2020,04,15,10,03,8.40
2020,04,15,10,04,8.40
2020,04,15,10,05,8.40
2020,04,15,10,06,8.40
2020,04,15,10,07,8.40
2020,04,15,10,08,8.30
2020,04,15,10,09,8.30
2020,04,15,10,10,8.30
2020,04,15,10,11,8.30
2020,04,15,10,12,8.30
2020,04,15,10,13,8.30
2020,04,15,10,14,8.30
2020,04,15,10,15,8.30
2020,04,15,10,16,8.30
2020,04,15,10,17,8.40
2020,04,15,10,18,8.40
2020,04,15,10,19,8.40
2020,04,15,10,20,8.40
2020,04,15,10,21,8.40
2020,04,15,10,22,8.40
2020,04,15,10,23,8.40
2020,04,15,10,24,8.40
2020,04,15,10,25,8.40
2020,04,15,10,26,8.40
2020,04,15,10,27,8.40
2020,04,15,10,28,8.40
2020,04,15,10,29,8.40
2020,04,15,10,30,8.40
2020,04,15,10,31,8.40
2020,04,15,10,32,8.40
2020,04,15,10,33,8.40
2020,04,15,10,34,8.40
2020,04,15,10,35,8.50
2020,04,15,10,36,8.50
2020,04,15,10,37,8.50
2020,04,15,10,38,8.50
2020,04,15,10,39,8.50
2020,04,15,10,40,8.50
2020,04,15,10,41,8.50
2020,04,15,10,42,8.50
2020,04,15,10,43,8.60
2020,04,15,10,44,8.60
2020,04,15,10,45,8.60
2020,04,15,10,46,8.60
2020,04,15,10,47,8.60
2020,04,15,10,48,8.70
2020,04,15,10,49,8.70
2020,04,15,10,50,8.70
2020,04,15,10,51,8.70
2020,04,15,10,52,8.80
2020,04,15,10,53,8.80
2020,04,15,10,54,8.90
2020,04,15,10,55,8.90
2020,04,15,10,56,9.00
2020,04,15,10,57,9.00
2020,04,15,10,58,9.00
2020,04,15,10,59,9.00
2020,04,15,11,00,9.10
2020,04,15,11,01,9.10
2020,04,15,11,02,9.20
2020,04,15,11,03,9.20
2020,04,15,11,04,9.20
2020,04,15,11,05,9.30
2020,04,15,11,06,9.30
2020,04,15,11,07,9.30
2020,04,15,11,08,9.30
2020,04,15,11,09,9.40
2020,04,15,11,10,9.40
2020,04,15,11,11,9.40
2020,04,15,11,12,9.40
2020,04,15,11,13,9.40
2020,04,15,11,14,9.40
2020,04,15,11,15,9.40
2020,04,15,11,16,9.40
2020,04,15,11,17,9.40
2020,04,15,11,18,9.40
2020,04,15,11,19,9.40
2020,04,15,11,20,9.40
2020,04,15,11,21,9.40
2020,04,15,11,22,9.40
2020,04,15,11,23,9.40
2020,04,15,11,24,9.40
2020,04,15,11,25,9.40
2020,04,15,11,26,9.40
2020,04,15,11,27,9.40
2020,04,15,11,28,9.40
2020,04,15,11,29,9.40
2020,04,15,11,30,9.40
2020,04,15,11,31,9.40
2020,04,15,11,32,9.40
2020,04,15,11,33,9.50
2020,04,15,11,34,9.60
2020,04,15,11,35,9.60
2020,04,15,11,36,9.70
2020,04,15,11,37,9.70
2020,04,15,11,38,9.80
2020,04,15,11,39,9.80
2020,04,15,11,40,9.90
2020,04,15,11,41,9.90
2020,04,15,11,42,10.00
2020,04,15,11,43,10.00
2020,04,15,11,44,10.10
2020,04,15,11,45,10.10
2020,04,15,11,46,10.20
2020,04,15,11,47,10.20
2020,04,15,11,48,10.30
2020,04,15,11,49,10.40
2020,04,15,11,50,10.40
2020,04,15,11,51,10.50
2020,04,15,11,52,10.20
2020,04,15,11,53,9.90
2020,04,15,11,54,9.80
2020,04,15,11,55,9.80
2020,04,15,11,56,9.80
2020,04,15,11,57,9.80
2020,04,15,11,58,9.80
2020,04,15,11,59,9.70
2020,04,15,12,00,9.60
2020,04,15,12,01,9.50
2020,04,15,12,02,9.30
2020,04,15,12,03,9.30
2020,04,15,12,04,9.20
2020,04,15,12,05,9.20
2020,04,15,12,06,9.20
2020,04,15,12,07,9.10
2020,04,15,12,08,9.10
2020,04,15,12,09,9.10
2020,04,15,12,10,9.10
2020,04,15,12,11,9.10
2020,04,15,12,12,9.10
2020,04,15,12,13,9.10
2020,04,15,12,14,9.10
2020,04,15,12,15,9.10
2020,04,15,12,16,9.10
2020,04,15,12,17,9.10
2020,04,15,12,18,9.20
2020,04,15,12,19,9.20
2020,04,15,12,20,9.20
2020,04,15,12,21,9.20
2020,04,15,12,22,9.20
2020,04,15,12,23,9.20
2020,04,15,12,24,9.10
2020,04,15,12,25,9.00
2020,04,15,12,26,9.00
2020,04,15,12,27,8.90
2020,04,15,12,28,8.90
2020,04,15,12,29,8.60
2020,04,15,12,30,8.30
2020,04,15,12,31,8.30
2020,04,15,12,32,8.30
2020,04,15,12,33,8.30
2020,04,15,12,34,8.30
2020,04,15,12,35,8.20
2020,04,15,12,36,8.20
2020,04,15,12,37,8.20
2020,04,15,12,38,8.20
2020,04,15,12,39,8.20
2020,04,15,12,40,8.30
2020,04,15,12,41,8.30
2020,04,15,12,42,8.30
2020,04,15,12,43,8.30
2020,04,15,12,44,8.30
2020,04,15,12,45,8.30
2020,04,15,12,46,8.30
2020,04,15,12,47,8.30
2020,04,15,12,48,8.40
2020,04,15,12,49,8.40
2020,04,15,12,50,8.40
2020,04,15,12,51,8.40
2020,04,15,12,52,8.40
2020,04,15,12,53,8.40
2020,04,15,12,54,8.40
2020,04,15,12,55,8.40
2020,04,15,12,56,8.40
2020,04,15,12,57,8.40
2020,04,15,12,58,8.40
2020,04,15,12,59,8.40
2020,04,15,13,00,8.40
2020,04,15,13,01,8.40
2020,04,15,13,02,8.40
2020,04,15,13,03,8.50
2020,04,15,13,04,8.50
2020,04,15,13,05,8.50
2020,04,15,13,06,8.50
2020,04,15,13,07,8.60
2020,04,15,13,08,8.60
2020,04,15,13,09,8.60
2020,04,15,13,10,8.60
2020,04,15,13,11,8.60
2020,04,15,13,12,8.70
2020,04,15,13,13,8.70
2020,04,15,13,14,8.70
2020,04,15,13,15,8.80
2020,04,15,13,16,8.80
2020,04,15,13,17,8.90
2020,04,15,13,18,8.90
2020,04,15,13,19,8.90
2020,04,15,13,20,8.90
2020,04,15,13,21,8.90
2020,04,15,13,22,9.00
2020,04,15,13,23,9.10
2020,04,15,13,24,9.10
2020,04,15,13,25,9.10
2020,04,15,13,26,9.20
2020,04,15,13,27,9.20
2020,04,15,13,28,9.20
2020,04,15,13,29,9.30
2020,04,15,13,30,9.30
2020,04,15,13,31,9.30
2020,04,15,13,32,9.40
2020,04,15,13,33,9.40
2020,04,15,13,34,9.40
2020,04,15,13,35,9.40
2020,04,15,13,36,9.50
2020,04,15,13,37,9.50
2020,04,15,13,38,9.50
2020,04,15,13,39,9.50
2020,04,15,13,40,9.60
2020,04,15,13,41,9.60
2020,04,15,13,42,9.60
2020,04,15,13,43,9.70
2020,04,15,13,44,9.70
2020,04,15,13,45,9.70
2020,04,15,13,46,9.80
2020,04,15,13,47,9.80
2020,04,15,13,48,9.80
2020,04,15,13,49,9.90
2020,04,15,13,50,9.90
2020,04,15,13,51,10.00
2020,04,15,13,52,10.10
2020,04,15,13,53,10.10
2020,04,15,13,54,10.20
2020,04,15,13,55,10.20
2020,04,15,13,56,10.20
2020,04,15,13,57,10.30
2020,04,15,13,58,10.30
2020,04,15,13,59,10.40
2020,04,15,14,00,10.40
2020,04,15,14,01,10.50
2020,04,15,14,02,10.50
2020,04,15,14,03,10.60
2020,04,15,14,04,10.60
2020,04,15,14,05,10.60
2020,04,15,14,06,10.60
2020,04,15,14,07,10.60
2020,04,15,14,08,10.70
2020,04,15,14,09,10.70
2020,04,15,14,10,10.70
2020,04,15,14,11,10.70
2020,04,15,14,12,10.70
2020,04,15,14,13,10.70
2020,04,15,14,14,10.80
2020,04,15,14,15,10.80
2020,04,15,14,16,10.80
2020,04,15,14,17,10.80
2020,04,15,14,18,10.80
2020,04,15,14,19,10.80
2020,04,15,14,20,10.80
2020,04,15,14,21,10.90
2020,04,15,14,22,10.90
2020,04,15,14,23,10.90
2020,04,15,14,24,11.00
2020,04,15,14,25,11.10
2020,04,15,14,26,11.10
2020,04,15,14,27,11.20
2020,04,15,14,28,11.30
2020,04,15,14,29,11.30
2020,04,15,14,30,11.40
2020,04,15,14,31,11.40
2020,04,15,14,32,11.50
2020,04,15,14,33,11.50
2020,04,15,14,34,11.50
2020,04,15,14,35,11.60
2020,04,15,14,36,11.50
2020,04,15,14,37,11.50
2020,04,15,14,38,11.50
2020,04,15,14,39,11.50
2020,04,15,14,40,11.50
2020,04,15,14,41,11.50
2020,04,15,14,42,11.50
2020,04,15,14,43,11.50
2020,04,15,14,44,11.50
2020,04,15,14,45,11.50
2020,04,15,14,46,11.40
2020,04,15,14,47,11.50
2020,04,15,14,48,11.50
2020,04,15,14,49,11.60
2020,04,15,14,50,11.60
2020,04,15,14,51,11.60
2020,04,15,14,52,11.70
2020,04,15,14,53,11.70
2020,04,15,14,54,11.70
2020,04,15,14,55,11.80
2020,04,15,14,56,11.80
2020,04,15,14,57,11.90
2020,04,15,14,58,11.90
2020,04,15,14,59,11.90
2020,04,15,15,00,11.90
2020,04,15,15,01,11.90
2020,04,15,15,02,11.90
2020,04,15,15,03,11.90
2020,04,15,15,04,11.90
2020,04,15,15,05,11.90
2020,04,15,15,06,11.90
2020,04,15,15,07,11.80
2020,04,15,15,08,11.80
2020,04,15,15,09,11.80
2020,04,15,15,10,11.80
2020,04,15,15,11,11.80
2020,04,15,15,12,11.80
2020,04,15,15,13,11.80
2020,04,15,15,14,11.80
2020,04,15,15,15,11.80
2020,04,15,15,16,11.80
2020,04,15,15,17,11.70
2020,04,15,15,18,11.70
2020,04,15,15,19,11.70
2020,04,15,15,20,11.60
2020,04,15,15,21,11.40
2020,04,15,15,22,11.40
2020,04,15,15,23,11.40
2020,04,15,15,24,11.50
2020,04,15,15,25,11.60
2020,04,15,15,26,11.70
2020,04,15,15,27,11.80
2020,04,15,15,28,11.90
2020,04,15,15,29,12.00
2020,04,15,15,30,12.10
2020,04,15,15,31,12.20
2020,04,15,15,32,12.30
2020,04,15,15,33,12.30
2020,04,15,15,34,12.40
2020,04,15,15,35,12.40
2020,04,15,15,36,12.50
2020,04,15,15,37,12.50
2020,04,15,15,38,12.50
2020,04,15,15,39,12.60
2020,04,15,15,40,12.60
2020,04,15,15,41,12.60
2020,04,15,15,42,12.60
2020,04,15,15,43,12.60
2020,04,15,15,44,12.60
2020,04,15,15,45,12.60
2020,04,15,15,46,12.50
2020,04,15,15,47,12.50
2020,04,15,15,48,12.40
2020,04,15,15,49,12.40
2020,04,15,15,50,12.40
2020,04,15,15,51,12.40
2020,04,15,15,52,12.40
2020,04,15,15,53,12.40
2020,04,15,15,54,12.40
2020,04,15,15,55,12.50
2020,04,15,15,56,12.50
2020,04,15,15,57,12.60
2020,04,15,15,58,12.60
2020,04,15,15,59,12.60
2020,04,15,16,00,12.70
2020,04,15,16,01,12.60
2020,04,15,16,02,12.60
2020,04,15,16,03,12.50
2020,04,15,16,04,12.40
2020,04,15,16,05,12.40
2020,04,15,16,06,12.50
2020,04,15,16,07,12.50
2020,04,15,16,08,12.60
2020,04,15,16,09,12.60
2020,04,15,16,10,12.60
2020,04,15,16,11,12.70
2020,04,15,16,12,12.70
2020,04,15,16,13,12.70
2020,04,15,16,14,12.80
2020,04,15,16,15,12.80
2020,04,15,16,16,12.80
2020,04,15,16,17,12.90
2020,04,15,16,18,12.90
2020,04,15,16,19,13.00
2020,04,15,16,20,13.00
2020,04,15,16,21,12.90
2020,04,15,16,22,12.90
2020,04,15,16,23,12.90
2020,04,15,16,24,12.90
2020,04,15,16,25,13.00
2020,04,15,16,26,13.10
2020,04,15,16,27,13.20
2020,04,15,16,28,13.20
2020,04,15,16,29,13.20
2020,04,15,16,30,13.30
2020,04,15,16,31,13.30
2020,04,15,16,32,13.30
2020,04,15,16,33,13.40
2020,04,15,16,34,13.40
2020,04,15,16,35,13.50
2020,04,15,16,36,13.40
2020,04,15,16,37,13.40
2020,04,15,16,38,13.30
2020,04,15,16,39,13.30
2020,04,15,16,40,13.20
2020,04,15,16,41,13.20
2020,04,15,16,42,13.10
2020,04,15,16,43,13.00
2020,04,15,16,44,12.90
2020,04,15,16,45,12.80
2020,04,15,16,46,12.70
2020,04,15,16,47,12.60
2020,04,15,16,48,12.50
2020,04,15,16,49,12.50
2020,04,15,16,50,12.50
2020,04,15,16,51,12.50
2020,04,15,16,52,12.60
2020,04,15,16,53,12.60
2020,04,15,16,54,12.70
2020,04,15,16,55,12.80
2020,04,15,16,56,12.80
2020,04,15,16,57,12.90
2020,04,15,16,58,12.90
2020,04,15,16,59,13.10
2020,04,15,17,00,13.20
2020,04,15,17,01,13.30
2020,04,15,17,02,13.30
2020,04,15,17,03,13.40
2020,04,15,17,04,13.40
2020,04,15,17,05,13.50
2020,04,15,17,06,13.50
2020,04,15,17,07,13.50
2020,04,15,17,08,13.60
2020,04,15,17,09,13.60
2020,04,15,17,10,13.70
2020,04,15,17,11,13.60
2020,04,15,17,12,13.60
2020,04,15,17,13,13.50
2020,04,15,17,14,13.50
2020,04,15,17,15,13.70
2020,04,15,17,16,13.80
2020,04,15,17,17,13.90
2020,04,15,17,18,13.90
2020,04,15,17,19,13.90
2020,04,15,17,20,14.00
2020,04,15,17,21,14.00
2020,04,15,17,22,14.10
2020,04,15,17,23,14.10
2020,04,15,17,24,14.20
2020,04,15,17,25,14.20
2020,04,15,17,26,14.10
2020,04,15,17,27,14.00
2020,04,15,17,28,13.90
2020,04,15,17,29,13.90
2020,04,15,17,30,14.00
2020,04,15,17,31,14.00
2020,04,15,17,32,14.00
2020,04,15,17,33,14.10
2020,04,15,17,34,14.20
2020,04,15,17,35,14.20
2020,04,15,17,36,14.20
2020,04,15,17,37,14.30
2020,04,15,17,38,14.30
2020,04,15,17,39,14.40
2020,04,15,17,40,14.50
2020,04,15,17,41,14.50
2020,04,15,17,42,14.60
2020,04,15,17,43,14.70
2020,04,15,17,44,14.80
2020,04,15,17,45,14.80
2020,04,15,17,46,14.90
2020,04,15,17,47,15.00
2020,04,15,17,48,15.00
2020,04,15,17,49,15.10
2020,04,15,17,50,15.20
2020,04,15,17,51,15.20
2020,04,15,17,52,15.20
2020,04,15,17,53,15.20
2020,04,15,17,54,15.20
2020,04,15,17,55,15.20
2020,04,15,17,56,15.20
2020,04,15,17,57,15.30
2020,04,15,17,58,15.30
2020,04,15,17,59,15.30
2020,04,15,18,00,15.30
2020,04,15,18,01,15.30
2020,04,15,18,02,15.30
2020,04,15,18,03,15.30
2020,04,15,18,04,15.30
2020,04,15,18,05,15.30
2020,04,15,18,06,15.40
2020,04,15,18,07,15.30
2020,04,15,18,08,15.30
2020,04,15,18,09,15.20
2020,04,15,18,10,15.20
2020,04,15,18,11,15.10
2020,04,15,18,12,15.00
2020,04,15,18,13,14.80
2020,04,15,18,14,14.50
2020,04,15,18,15,14.30
2020,04,15,18,16,14.20
2020,04,15,18,17,14.20
2020,04,15,18,18,14.20
2020,04,15,18,19,14.20
2020,04,15,18,20,14.20
2020,04,15,18,21,14.30
2020,04,15,18,22,14.30
2020,04,15,18,23,14.30
2020,04,15,18,24,14.30
2020,04,15,18,25,14.30
2020,04,15,18,26,14.20
2020,04,15,18,27,14.20
2020,04,15,18,28,14.30
2020,04,15,18,29,14.50
2020,04,15,18,30,14.60
2020,04,15,18,31,14.60
2020,04,15,18,32,14.60
2020,04,15,18,33,14.70
2020,04,15,18,34,14.80
2020,04,15,18,35,14.90
2020,04,15,18,36,14.80
2020,04,15,18,37,14.70
2020,04,15,18,38,14.70
2020,04,15,18,39,14.60
2020,04,15,18,40,14.50
2020,04,15,18,41,14.40
2020,04,15,18,42,14.40
2020,04,15,18,43,14.30
2020,04,15,18,44,14.20
2020,04,15,18,45,14.10
2020,04,15,18,46,14.10
2020,04,15,18,47,14.10
2020,04,15,18,48,14.10
2020,04,15,18,49,14.20
2020,04,15,18,50,14.20
2020,04,15,18,51,14.20
2020,04,15,18,52,14.30
2020,04,15,18,53,14.30
2020,04,15,18,54,14.20
2020,04,15,18,55,14.20